TimePST,TemperatureF,Dew PointF,Humidity,Sea Level PressureIn,VisibilityMPH,Wind Direction,Wind SpeedMPH,Gust SpeedMPH,PrecipitationIn,Events,Conditions,WindDirDegrees,DateUTC
12:56 AM,-8.0,-11.0,86,30.56,10.0,ENE,5.8,-,N/A,,Clear,70,2013-01-01 08:56:00
2:11 AM,-11.2,-16.6,77,30.30,2.5,Calm,Calm,-,N/A,,Scattered Clouds,0,2013-01-01 10:11:00
2:25 AM,-13.0,-16.6,84,30.30,7.0,Calm,Calm,-,N/A,,Partly Cloudy,0,2013-01-01 10:25:00
2:56 AM,-11.9,-16.1,82,30.61,10.0,Calm,Calm,-,N/A,,Clear,0,2013-01-01 10:56:00
3:17 AM,-13.0,-16.6,84,30.31,5.0,Calm,Calm,-,N/A,,Scattered Clouds,0,2013-01-01 11:17:00
3:56 AM,-11.0,-15.0,83,30.61,10.0,ENE,6.9,-,N/A,,Clear,70,2013-01-01 11:56:00
4:48 AM,-11.2,-14.8,84,30.31,10.0,ENE,5.8,-,N/A,,Scattered Clouds,70,2013-01-01 12:48:00
4:56 AM,-11.0,-15.0,83,30.65,10.0,ENE,5.8,-,N/A,,Mostly Cloudy,60,2013-01-01 12:56:00
6:56 AM,-8.0,-11.9,83,30.69,9.0,WSW,3.5,-,N/A,,Overcast,240,2013-01-01 14:56:00
7:56 AM,-9.0,-11.9,87,30.72,7.0,Calm,Calm,-,N/A,,Overcast,0,2013-01-01 15:56:00
8:43 AM,-5.8,-5.8,100,30.38,8.0,Calm,Calm,-,N/A,,Overcast,0,2013-01-01 16:43:00
8:56 AM,-2.9,-4.0,95,30.71,9.0,Calm,Calm,-,N/A,,Overcast,0,2013-01-01 16:56:00
9:56 AM,-0.9,-4.0,87,30.77,5.0,East,3.5,-,N/A,,Overcast,80,2013-01-01 17:56:00
10:13 AM,-0.4,-5.8,78,30.42,6.0,ENE,4.6,-,N/A,,Haze,70,2013-01-01 18:13:00
10:47 AM,-0.4,-5.8,78,30.42,1.8,ENE,4.6,-,N/A,,Haze,70,2013-01-01 18:47:00
10:54 AM,-0.4,-5.8,78,30.42,2.0,East,3.5,-,N/A,,Haze,90,2013-01-01 18:54:00
10:55 AM,-0.9,-6.0,79,30.76,2.5,East,3.5,-,N/A,,Haze,90,2013-01-01 18:55:00
10:57 AM,-0.4,-5.8,78,30.42,3.0,East,3.5,-,N/A,,Haze,100,2013-01-01 18:57:00
11:56 AM,1.0,-2.9,83,30.72,10.0,SW,3.5,-,N/A,,Clear,220,2013-01-01 19:56:00
12:56 PM,5.0,-2.0,73,30.69,10.0,Calm,Calm,-,N/A,,Clear,0,2013-01-01 20:56:00
1:56 PM,3.9,-0.9,80,30.71,10.0,SW,3.5,-,N/A,,Clear,230,2013-01-01 21:56:00
2:56 PM,5.0,-0.9,76,30.71,10.0,Calm,Calm,-,N/A,,Clear,0,2013-01-01 22:56:00
3:56 PM,5.0,-2.0,73,30.71,10.0,ENE,3.5,-,N/A,,Clear,70,2013-01-01 23:56:00
4:56 PM,1.0,-4.0,79,30.73,10.0,Calm,Calm,-,N/A,,Clear,0,2013-01-02 00:56:00
5:56 PM,-2.0,-8.0,76,30.76,10.0,Calm,Calm,-,N/A,,Clear,0,2013-01-02 01:56:00
6:56 PM,-2.0,-6.0,83,30.75,8.0,ENE,4.6,-,N/A,,Clear,60,2013-01-02 02:56:00
7:56 PM,-4.0,-8.0,83,30.76,10.0,Calm,Calm,-,N/A,,Clear,0,2013-01-02 03:56:00
8:12 PM,-7.6,-9.4,92,30.40,4.0,South,3.5,-,N/A,,Scattered Clouds,170,2013-01-02 04:12:00
8:20 PM,-7.6,-11.2,84,30.39,4.0,South,3.5,-,N/A,,Mostly Cloudy,180,2013-01-02 04:20:00
8:28 PM,-7.6,-11.2,84,30.40,9.0,Calm,Calm,-,N/A,,Scattered Clouds,0,2013-01-02 04:28:00
8:56 PM,-7.1,-11.0,83,30.76,10.0,Calm,Calm,-,N/A,,Clear,0,2013-01-02 04:56:00
9:56 PM,-9.9,-14.1,82,30.78,1.2,ESE,3.5,-,N/A,,Partly Cloudy,120,2013-01-02 05:56:00
10:03 PM,-7.6,-11.2,84,30.43,1.0,East,8.1,-,N/A,,Mist,80,2013-01-02 06:03:00
10:06 PM,-7.6,-11.2,84,30.42,3.0,East,6.9,-,N/A,,Clear,80,2013-01-02 06:06:00
10:56 PM,-9.0,-13.0,83,30.77,10.0,Calm,Calm,-,N/A,,Clear,0,2013-01-02 06:56:00
11:56 PM,-9.0,-13.0,83,30.76,10.0,East,4.6,-,N/A,,Clear,90,2013-01-02 07:56:00